Location: El Diablo
(32.4667°N, 116.4500°W)
Time: 02:09:55
(UTC+00:00)

Cosmos 540 Rocket - Pass Details

Date: 10 September 2024
Orbit: 737 x 749 km, 74.1° (Epoch: 06 October)

Event Time Altitude Azimuth Distance (km) Brightness Sun altitude
Rises 12:27:58 0° 337° (NNW) 3,180 6.6 -13.1°
Reaches altitude 10° 12:30:22 10° 332° (NNW) 2,255 5.8 -12.6°
Maximum altitude 12:35:18 52° 257° (WSW) 921 3.5 -11.5°
Drops below altitude 10° 12:40:14 10° 182° (S) 2,250 5.8 -10.5°
Sets 12:42:38 0° 177° (S) 3,172 6.6 -10.0°
